Cloud_Cover
24 69 5 79 78 33 0 0 0 0 0 0 0 0 0 0 0 0 0 0 0 0 12 0 2 5 24 70 100 100 62 100 100
65 100 5 5 6 99 6 0 0 0 0 0 0 0 0 0 0 0 0 0 0 0 0 0 0 0 5 6 0 19 97 99 100
99 79 11 2 0 4 60 100 75 0 0 0 0 0 0 0 0 0 0 0 0 0 0 0 0 0 5 63 17 3 5 58 67
15 34 100 8 5 44 87 100 100 100 0 0 0 0 0 0 0 0 0 0 0 0 0 0 3 0 3 6 5 4 5 5 12
31 100 74 99 88 99 100 100 100 14 0 0 0 0 0 0 0 0 0 0 0 0 0 0 0 0 0 0 1 5 1 2 5
59 3 97 100 100 84 100 100 100 83 2 0 0 0 0 0 0 0 0 0 0 0 0 0 0 0 0 0 0 0 0 0 0
100 92 0 100 100 100 100 100 100 85 10 0 0 0 0 0 0 0 0 0 0 0 0 0 0 0 0 0 0 0 0 0 0
6 100 84 100 100 100 100 100 100 100 95 5 0 0 0 0 0 0 0 0 0 0 0 0 0 0 0 0 0 0 0 0 0
3 54 100 100 100 100 100 98 100 100 100 100 0 0 0 0 0 0 0 0 0 0 0 0 0 0 0 0 0 0 0 0 1
0 0 95 100 100 100 100 100 100 100 100 98 4 0 0 0 0 0 0 0 0 0 0 0 0 0 0 0 0 0 0 0 0
2 2 8 100 100 100 100 100 100 100 100 100 66 34 1 0 0 0 0 0 0 0 0 0 0 0 0 0 0 0 5 0 0
52 5 0 98 100 100 100 100 100 100 88 99 100 66 25 0 0 0 0 0 0 0 0 0 0 0 0 0 0 0 0 0 0
26 5 4 7 100 100 100 100 100 100 74 100 100 100 93 26 0 0 2 2 0 0 0 0 0 0 0 0 0 0 0 0 0
0 0 0 0 82 100 100 100 100 100 100 100 100 100 99 5 2 0 0 2 5 22 2 0 0 0 0 0 23 2 2 0 1
0 0 6 1 5 9 49 100 100 100 100 100 100 100 100 44 5 0 33 51 19 8 84 98 42 2 38 39 60 77 87 64 58
45 35 7 25 5 100 94 31 100 100 100 100 100 100 100 97 52 44 100 100 100 100 97 88 78 99 52 93 100 99 51 89 99
14 30 8 3 6 28 100 100 100 100 92 99 99 100 100 100 100 88 100 100 100 100 100 72 100 100 100 100 100 100 100 100 100
90 37 5 0 0 48 57 75 100 100 100 92 100 100 100 79 92 85 100 100 100 100 100 100 86 98 100 100 100 100 100 100 100
86 100 79 34 3 2 19 92 56 97 100 100 100 100 100 100 70 96 100 100 100 100 100 100 100 100 100 100 100 100 100 100 100
59 100 100 100 100 55 91 52 12 38 76 100 100 100 100 86 88 100 100 100 100 100 100 100 100 100 100 100 100 100 100 100 100